This is the latest recevied weather packets stored in our database for station/object IZ5MMH-1. If no packets are shown the sender has not sent any weather packets the latest 10 day(s).
| Time | Temp. | Humidity | Pressure | Rain* | Wind** | Luminosity | Snow |
|---|---|---|---|---|---|---|---|
| 1787720688 | 21.11° C | 76% | 1016.9 hPa | - | - | - | - |
| 1787720088 | 20.56° C | 76% | 1017 hPa | - | - | - | - |
| 1787719486 | 20.56° C | 74% | 1016.8 hPa | - | - | - | - |
| 1787718887 | 20.56° C | 75% | 1016.6 hPa | - | - | - | - |
| 1787718287 | 20.56° C | 75% | 1016.3 hPa | - | - | - | - |
| 1787717687 | 20.56° C | 76% | 1016.4 hPa | - | - | - | - |
| 1787717086 | 20.56° C | 75% | 1016.4 hPa | - | - | - | - |
| 1787716487 | 20.56° C | 75% | 1016.5 hPa | - | - | - | - |
| 1787715886 | 20.56° C | 73% | 1016.5 hPa | - | - | - | - |
| 1787715287 | 20.56° C | 76% | 1016.5 hPa | - | - | - | - |
| 1787714687 | 20.56° C | 72% | 1016.4 hPa | - | - | - | - |
| 1787714086 | 21.11° C | 72% | 1016.3 hPa | - | - | - | - |
| 1787713487 | 21.11° C | 71% | 1016.4 hPa | - | - | - | - |
| 1787712886 | 21.11° C | 74% | 1016.4 hPa | - | - | - | - |
| 1787712287 | 21.11° C | 76% | 1016.4 hPa | - | - | - | - |
| 1787711686 | 21.11° C | 73% | 1016.4 hPa | - | - | - | - |
| 1787711087 | 21.11° C | 71% | 1016.2 hPa | - | - | - | - |
| 1787710487 | 21.11° C | 73% | 1016.3 hPa | - | - | - | - |
| 1787709886 | 21.11° C | 76% | 1016.4 hPa | - | - | - | - |
| 1787709286 | 21.11° C | 73% | 1016.4 hPa | - | - | - | - |
| 1787708687 | 21.11° C | 71% | 1016.5 hPa | - | - | - | - |
| 1787708086 | 21.67° C | 73% | 1016.3 hPa | - | - | - | - |
| 1787707487 | 21.67° C | 71% | 1016.4 hPa | - | - | - | - |
| 1787706887 | 21.67° C | 72% | 1016.3 hPa | - | - | - | - |
| 1787706286 | 21.67° C | 75% | 1016.3 hPa | - | - | - | - |
* Rain since midnight (hover to see other rain measurements)
** Current wind speed in m/s (hover to see current wind gust speed)